Weather History for Newberry, SC

Change the Weather History Date:

Sunday, March 17, 2013

  Actual Average (KFDW) Record (KFDW)
Temperature  
Mean Temperature 64 °F -  
Max Temperature 75 °F 64 °F 86 °F (2012)
Min Temperature 53 °F 38 °F 33 °F (2014)
Degree Days  
Heating Degree Days 1    
Growing Degree Days 14 (Base 50)    
Moisture  
Dew Point 47 °F    
Average Humidity 54    
Maximum Humidity 82    
Minimum Humidity 36    
Precipitation  
Precipitation 0.00 in - - ()
Sea Level Pressure  
Sea Level Pressure 29.98 in    
Wind  
Wind Speed 9 mph (SW)    
Max Wind Speed 16 mph    
Max Gust Speed 21 mph    
Visibility 10 miles    
Events      
Averages and records for this station are not official NWS values.
T = Trace of Precipitation, MM = Missing Value Source: NWS Daily Summary

Daily Weather History Graph

Daily Weather History Graph

Search for Another Location

Airport:

Trip Planner

Search our weather history database for the weather conditions in past years. The results will help you decide how hot, cold, wet, or windy it might be!

Date:

Astronomy

Mar. 17, 2013 Rise Set
Actual Time 7:34 AM EDT 7:36 PM EDT
Civil Twilight 7:09 AM EDT 8:01 PM EDT
Nautical Twilight 6:39 AM EDT 8:30 PM EDT
Astronomical Twilight 6:10 AM EDT 8:59 PM EDT
Moon 10:59 AM EDT (3/17) 12:29 AM EDT (3/17)
Length of Visible Light 12h 52m
Length of Day
12h 02m
Waxing Crescent, 31% of the Moon is Illuminated
Mar 17
Waxing Crescent
Mar 19
First Quarter
Mar 27
Full
Apr 3
Last Quarter
Apr 10
New

Hourly Weather History & Observations

Time (EDT) Temp. Dew Point Humidity Pressure Visibility Wind Dir Wind Speed Gust Speed Precip Events Conditions
12:15 AM 62.6 °F 39.2 °F 42% 29.95 in 10.0 mi SW 8.1 mph - N/A   Clear
12:35 AM 62.6 °F 41.0 °F 45% 29.95 in 10.0 mi SW 10.4 mph - N/A   Clear
12:55 AM 60.8 °F 41.0 °F 48% 29.95 in 10.0 mi SW 9.2 mph - N/A   Clear
1:15 AM 60.8 °F 41.0 °F 48% 29.95 in 10.0 mi SW 10.4 mph - N/A   Clear
1:35 AM 60.8 °F 41.0 °F 48% 29.95 in 10.0 mi WSW 8.1 mph - N/A   Clear
1:55 AM 60.8 °F 41.0 °F 48% 29.96 in 10.0 mi SW 8.1 mph - N/A   Clear
2:15 AM 59.0 °F 41.0 °F 51% 29.97 in 10.0 mi SW 6.9 mph - N/A   Clear
2:35 AM 59.0 °F 41.0 °F 51% 29.97 in 10.0 mi SW 6.9 mph - N/A   Clear
2:55 AM 59.0 °F 41.0 °F 51% 29.97 in 10.0 mi SW 8.1 mph - N/A   Clear
3:15 AM 59.0 °F 41.0 °F 51% 29.97 in 10.0 mi SW 9.2 mph - N/A   Clear
3:35 AM 57.2 °F 41.0 °F 55% 29.97 in 10.0 mi SW 8.1 mph - N/A   Clear
3:55 AM 57.2 °F 41.0 °F 55% 29.96 in 10.0 mi SW 8.1 mph - N/A   Clear
4:15 AM 55.4 °F 41.0 °F 58% 29.96 in 10.0 mi SW 8.1 mph - N/A   Clear
4:35 AM 53.6 °F 41.0 °F 62% 29.96 in 10.0 mi SW 5.8 mph - N/A   Clear
4:55 AM 53.6 °F 41.0 °F 62% 29.96 in 10.0 mi SSW 5.8 mph - N/A   Clear
5:15 AM 53.6 °F 41.0 °F 62% 29.96 in 10.0 mi SW 5.8 mph - N/A   Clear
5:35 AM 53.6 °F 41.0 °F 62% 29.96 in 10.0 mi SW 8.1 mph - N/A   Clear
5:55 AM 53.6 °F 42.8 °F 67% 29.96 in 10.0 mi SW 8.1 mph - N/A   Clear
6:15 AM 55.4 °F 42.8 °F 63% 29.97 in 10.0 mi SW 9.2 mph - N/A   Clear
6:35 AM 53.6 °F 44.6 °F 72% 29.97 in 10.0 mi SSW 8.1 mph - N/A   Clear
6:55 AM 53.6 °F 44.6 °F 72% 29.98 in 10.0 mi SW 10.4 mph - N/A   Clear
7:15 AM 53.6 °F 44.6 °F 72% 29.99 in 10.0 mi SW 9.2 mph - N/A   Clear
7:35 AM 53.6 °F 46.4 °F 77% 29.99 in 10.0 mi WSW 9.2 mph - N/A   Clear
7:55 AM 55.4 °F 46.4 °F 72% 29.99 in 10.0 mi WSW 10.4 mph - N/A   Clear
8:15 AM 57.2 °F 46.4 °F 67% 29.99 in 10.0 mi SW 10.4 mph - N/A   Clear
8:35 AM 59.0 °F 48.2 °F 67% 30.00 in 10.0 mi SW 10.4 mph - N/A   Clear
8:55 AM 59.0 °F 48.2 °F 67% 30.01 in 10.0 mi SW 9.2 mph - N/A   Clear
9:15 AM 60.8 °F 50.0 °F 68% 30.01 in 10.0 mi WSW 10.4 mph 19.6 mph N/A   Clear
9:35 AM 62.6 °F 50.0 °F 63% 30.01 in 10.0 mi WSW 12.7 mph 19.6 mph N/A   Clear
9:55 AM 64.4 °F 50.0 °F 59% 30.02 in 10.0 mi SW 11.5 mph 19.6 mph N/A   Clear
10:15 AM 64.4 °F 50.0 °F 59% 30.02 in 10.0 mi WSW 13.8 mph 20.7 mph N/A   Clear
10:55 AM 68.0 °F 50.0 °F 52% 30.02 in 10.0 mi WSW 11.5 mph 16.1 mph N/A   Clear
11:15 AM 69.8 °F 50.0 °F 49% 30.02 in 10.0 mi West 11.5 mph - N/A   Clear
11:35 AM 69.8 °F 50.0 °F 49% 30.01 in 10.0 mi West 11.5 mph 16.1 mph N/A   Clear
11:55 AM 71.6 °F 51.8 °F 50% 30.01 in 10.0 mi West 9.2 mph 17.3 mph N/A   Clear
12:15 PM 71.6 °F 50.0 °F 46% 30.00 in 10.0 mi WSW 9.2 mph 18.4 mph N/A   Clear
12:35 PM 71.6 °F 50.0 °F 46% 30.00 in 10.0 mi SW 12.7 mph - N/A   Clear
12:55 PM 73.4 °F 50.0 °F 44% 29.99 in 10.0 mi West 8.1 mph - N/A   Clear
1:15 PM 73.4 °F 50.0 °F 44% 29.99 in 10.0 mi SW 11.5 mph 16.1 mph N/A   Clear
1:35 PM 73.4 °F 50.0 °F 44% 29.98 in 10.0 mi SW 10.4 mph 17.3 mph N/A   Clear
1:55 PM 75.2 °F 50.0 °F 41% 29.97 in 10.0 mi WSW 10.4 mph - N/A   Clear
2:15 PM 75.2 °F 48.2 °F 38% 29.96 in 10.0 mi West 11.5 mph 20.7 mph N/A   Clear
2:35 PM 75.2 °F 46.4 °F 36% 29.95 in 10.0 mi SW 13.8 mph 18.4 mph N/A   Scattered Clouds
2:55 PM 73.4 °F 46.4 °F 38% 29.94 in 10.0 mi WSW 10.4 mph - N/A   Scattered Clouds
3:15 PM 75.2 °F 48.2 °F 38% 29.94 in 10.0 mi SW 11.5 mph - N/A   Scattered Clouds
3:55 PM 75.2 °F 46.4 °F 36% 29.93 in 10.0 mi WSW 13.8 mph 19.6 mph N/A   Scattered Clouds
4:15 PM 75.2 °F 48.2 °F 38% 29.94 in 10.0 mi SW 11.5 mph 18.4 mph N/A   Scattered Clouds
4:35 PM 73.4 °F 48.2 °F 41% 29.94 in 10.0 mi SSW 10.4 mph 20.7 mph N/A   Scattered Clouds
4:55 PM 73.4 °F 48.2 °F 41% 29.94 in 10.0 mi SW 16.1 mph - N/A   Scattered Clouds
5:15 PM 73.4 °F 48.2 °F 41% 29.94 in 10.0 mi SW 12.7 mph 20.7 mph N/A   Scattered Clouds
5:35 PM 71.6 °F 46.4 °F 41% 29.94 in 10.0 mi SW 6.9 mph - N/A   Clear
5:55 PM 71.6 °F 48.2 °F 43% 29.93 in 10.0 mi SW 4.6 mph - N/A   Clear
6:15 PM 71.6 °F 48.2 °F 43% 29.94 in 10.0 mi SW 6.9 mph - N/A   Clear
6:35 PM 71.6 °F 48.2 °F 43% 29.94 in 10.0 mi SSW 9.2 mph - N/A   Clear
6:55 PM 69.8 °F 50.0 °F 49% 29.95 in 10.0 mi SW 9.2 mph - N/A   Clear
7:15 PM 69.8 °F 50.0 °F 49% 29.96 in 10.0 mi SSW 8.1 mph 18.4 mph N/A   Clear
7:35 PM 69.8 °F 48.2 °F 46% 29.97 in 10.0 mi SW 10.4 mph - N/A   Scattered Clouds
7:55 PM 68.0 °F 48.2 °F 49% 29.98 in 10.0 mi SW 10.4 mph - N/A   Scattered Clouds
8:15 PM 68.0 °F 48.2 °F 49% 29.99 in 10.0 mi SSW 6.9 mph - N/A   Scattered Clouds
8:35 PM 66.2 °F 48.2 °F 52% 29.99 in 10.0 mi South 5.8 mph - N/A   Clear
8:55 PM 66.2 °F 50.0 °F 56% 30.00 in 10.0 mi SSW 5.8 mph - N/A   Clear
9:15 PM 64.4 °F 50.0 °F 59% 30.00 in 10.0 mi SSW 4.6 mph - N/A   Clear
10:15 PM 62.6 °F 50.0 °F 63% 30.02 in 10.0 mi SSW 4.6 mph - N/A   Clear
10:35 PM 62.6 °F 50.0 °F 63% 30.02 in 10.0 mi SSW 3.5 mph - N/A   Clear
10:55 PM 60.8 °F 50.0 °F 68% 30.03 in 10.0 mi Calm Calm - N/A   Clear
11:15 PM 59.0 °F 50.0 °F 72% 30.03 in 10.0 mi SSW 3.5 mph - N/A   Clear
11:35 PM 57.2 °F 50.0 °F 77% 30.04 in 10.0 mi SSW 3.5 mph - N/A   Clear
11:55 PM 55.4 °F 50.0 °F 82% 30.05 in 10.0 mi North 9.2 mph - N/A   Clear